[[{"header":{"parameterUnit":"m.s-1","parameterCategory":1,"la1":30.2991,"la2":30.254,"lo1":-89.0895,"lo2":-89.0444,"dy":0.0017,"dx":0.0017,"nx":28,"ny":28,"refTime":"2024-07-15T09:00:00:Z","depth":0,"parameterNumber":2,"parameterNumberName":"U-component_of_WINDS"},"data":[0,0,0,0,0,0,0,0,0,0,0,0,0,0,0,0,0,0,0,0,0,0,0,0,0,0,0,0,0,0,0,0,0,0,0,0,0,0,0,0,0,0,0,0,0,0,0,0,0,0,0,0,0,0,0,0,0,0,0.2056,0.2055,0,0.2026,0.2026,0.2026,0.2009,0.2009,0.2009,0.2009,0.1977,0.1976,0.1975,0,0,0,0,0,0,0,0,0,0,0,0,0,0.2097,0.2096,0.2056,0.2055,0.2055,0.2026,0.2026,0.2026,0.2009,0.2009,0.2009,0.2009,0.1977,0.1976,0.1975,0,0,0,0,0,0,0,0,0,0,0,0,0,0.2074,0.2096,0.2056,0.2043,0.2042,0.2026,0.2026,0.2025,0.2009,0.2009,0.2009,0.2009,0.1977,0.1976,0.1975,0.1969,0,0,0.1971,0.1971,0,0,0,0,0,0,0,0,0.2076,0.2073,0.2045,0.2044,0.2042,0.2021,0.2029,0.2006,0.2009,0.2021,0.2009,0.2009,0.1991,0.1989,0.1984,0.1967,0.1966,0.1971,0.197,0.197,0.1969,0,0,0,0,0,0,0,0.2077,0.2074,0.2044,0.2045,0.2043,0.2039,0.2036,0.2024,0.2007,0.202,0.2019,0.2016,0.199,0.1985,0.1983,0.1965,0.1971,0.197,0.1969,0.1969,0.1945,0.1945,0,0,0,0,0,0,0.2081,0.2075,0.2045,0.2043,0.2059,0.2038,0.2035,0.2028,0.2007,0.2004,0.2016,0.2015,0.1987,0.1984,0.1981,0.1975,0.197,0.1969,0.1968,0.1945,0.1945,0.1946,0,0,0,0,0,0,0.2082,0.2078,0.2046,0.2059,0.2054,0.2038,0.203,0.2028,0.2022,0.2004,0.2001,0.2013,0.1987,0.1983,0.1973,0.1973,0.1968,0.1967,0.1945,0.1945,0.1945,0.196,0,0,0,0,0,0,0.2083,0.2079,0.2076,0.2059,0.2054,0.2038,0.203,0.2027,0.202,0.2019,0.2001,0.1997,0.1986,0.1975,0.1972,0.1971,0.1966,0.1945,0.1945,0.1945,0.1959,0.1961,0.1962,0,0,0,0,0,0.2085,0.208,0.2076,0.2072,0.205,0.2038,0.2035,0.2023,0.202,0.2018,0.2007,0.1998,0.1974,0.1974,0.197,0.197,0.1945,0.1945,0.1945,0.1959,0.196,0.1962,0,0,0,0,0,0,0.2096,0.2078,0.2073,0.2063,0.2052,0.2035,0.2031,0.2025,0.2014,0.2013,0.1998,0.1994,0.1985,0.1976,0.1977,0.1964,0.1959,0.1958,0.197,0.1971,0.1972,0.1975,0.1965,0,0,0,0,0,0.2098,0.209,0.2074,0.2067,0.2062,0.2048,0.2042,0.2034,0.2022,0.2017,0.2005,0.1993,0.1983,0.1977,0.1966,0.1958,0.1955,0.1956,0.1957,0.1959,0.1958,0.1955,0.1956,0.1946,0.1946,0.1946,0,0,0.2101,0.209,0.2085,0.2069,0.206,0.2052,0.2044,0.2035,0.2029,0.2015,0.2005,0.1997,0.1983,0.1974,0.1969,0.1966,0.196,0.1959,0.196,0.1959,0.1955,0.1956,0.1957,0.1946,0.1946,0.1946,0,0,0.2103,0.2093,0.2087,0.2079,0.2066,0.2057,0.2055,0.204,0.2034,0.2024,0.2014,0.2007,0.1989,0.198,0.1974,0.1975,0.1967,0.1972,0.1978,0.1975,0.1976,0.1976,0.1978,0.1979,0.1972,0.1972,0.1972,0,0.2107,0.2095,0.2084,0.2077,0.2071,0.206,0.2054,0.2046,0.203,0.2026,0.2023,0.2003,0.1992,0.1982,0.1983,0.1977,0.1976,0.1974,0.1977,0.1977,0.1978,0.1979,0.1979,0.1973,0.1973,0.1972,0.1972,0,0.2103,0.2095,0.2092,0.2078,0.2072,0.2065,0.2053,0.2048,0.2041,0.2033,0.2024,0.2012,0.2,0.1997,0.1989,0.1986,0.1985,0.198,0.1974,0.1979,0.1981,0.1981,0.1974,0.1973,0.1973,0.1973,0,0,0.2109,0.2092,0.2091,0.2085,0.2071,0.2065,0.2059,0.2048,0.2044,0.2034,0.2029,0.2016,0.2012,0.2004,0.1996,0.1994,0.1998,0.1989,0.1988,0.1991,0.1995,0.2,0.2,0.1993,0.1993,0.1993,0.1997,0,0.2109,0.2097,0.2088,0.208,0.2074,0.2065,0.2059,0.205,0.2043,0.2036,0.2028,0.202,0.2014,0.201,0.2007,0.1998,0.1998,0.1997,0.1988,0.1988,0.1992,0.2001,0.2005,0.2009,0.1997,0.1997,0.1997,0,0.2106,0.2098,0.209,0.2079,0.2076,0.2072,0.2063,0.2056,0.2047,0.2042,0.2035,0.2027,0.2021,0.2017,0.2008,0.2008,0.2004,0.1999,0.1999,0.1997,0.1993,0.2,0.2009,0.201,0.1997,0.1997,0.1997,0,0.2112,0.21,0.2094,0.2089,0.2076,0.2074,0.2068,0.2059,0.2054,0.2046,0.2043,0.2034,0.2029,0.2022,0.2013,0.201,0.2006,0.2,0.2002,0.2002,0.2001,0.2001,0.2011,0.1998,0.1998,0.1998,0.1998,0,0.2113,0.2108,0.2097,0.2093,0.2088,0.2079,0.2074,0.2068,0.206,0.2055,0.2047,0.2042,0.203,0.2025,0.2017,0.2012,0.201,0.2006,0.2004,0.2007,0.2007,0.2003,0.2003,0.1998,0.1998,0.1998,0.1998,0,0.2118,0.211,0.2104,0.2093,0.209,0.2087,0.2078,0.2075,0.2068,0.2062,0.206,0.2049,0.2043,0.2033,0.2023,0.2018,0.2014,0.2011,0.2018,0.2017,0.2019,0.202,0.2027,0.2028,0.2015,0.2015,0.2015,0,0.2119,0.2116,0.2106,0.2103,0.2098,0.2092,0.2088,0.2079,0.2075,0.2066,0.2064,0.2057,0.2051,0.2041,0.2032,0.2025,0.2021,0.2024,0.202,0.2024,0.2022,0.2023,0.2023,0.2025,0.2025,0.2026,0.2026,0,0.2122,0.2119,0.2113,0.2107,0.2103,0.2097,0.2091,0.2089,0.2079,0.2075,0.2069,0.2064,0.2056,0.2049,0.2041,0.2035,0.2029,0.2028,0.2028,0.203,0.2035,0.2034,0.2021,0.2027,0.2027,0.2027,0.2027,0.2027,0.2125,0.2123,0.2116,0.2111,0.2106,0.2101,0.2098,0.2092,0.2087,0.208,0.2075,0.207,0.2063,0.2052,0.2047,0.2043,0.204,0.204,0.204,0.204,0.2042,0.2036,0.2041,0.2041,0.2041,0.2041,0.2041,0,0.2128,0.2124,0.2119,0.2112,0.2109,0.2105,0.2099,0.2096,0.2092,0.2086,0.2081,0.2075,0.207,0.2062,0.2056,0.2054,0.2051,0.2053,0.2053,0.2052,0.2044,0.2045,0.2055,0.2055,0.2055,0.2055,0.2055,0.2055,0.2129,0.2125,0.2122,0.2116,0.2112,0.2108,0.2105,0.2101,0.2096,0.2091,0.2087,0.2082,0.2076,0.207,0.2065,0.2063,0.2062,0.2064,0.2061,0.2054,0.2052,0.2051,0.2052,0.2064,0.2064,0.207,0.207,0.207]},{"header":{"parameterUnit":"m.s-1","parameterCategory":1,"la1":30.2991,"la2":30.254,"lo1":-89.0895,"lo2":-89.0444,"dy":0.0017,"dx":0.0017,"nx":28,"ny":28,"refTime":"2024-07-15T09:00:00:Z","depth":0,"parameterNumber":3,"parameterNumberName":"V-component_of_WINDS"},"data":[0,0,0,0,0,0,0,0,0,0,0,0,0,0,0,0,0,0,0,0,0,0,0,0,0,0,0,0,0,0,0,0,0,0,0,0,0,0,0,0,0,0,0,0,0,0,0,0,0,0,0,0,0,0,0,0,0,0,-0.5063,-0.5064,0,-0.5124,-0.5125,-0.5126,-0.5156,-0.5156,-0.5156,-0.5156,-0.5218,-0.522,-0.5222,0,0,0,0,0,0,0,0,0,0,0,0,0,-0.4973,-0.4974,-0.5063,-0.5064,-0.5065,-0.5124,-0.5125,-0.5126,-0.5156,-0.5156,-0.5156,-0.5156,-0.5218,-0.522,-0.5222,0,0,0,0,0,0,0,0,0,0,0,0,0,-0.5021,-0.4975,-0.5063,-0.5087,-0.5089,-0.5124,-0.5125,-0.5126,-0.5156,-0.5156,-0.5156,-0.5156,-0.5217,-0.5219,-0.5222,-0.5238,0,0,-0.523,-0.5231,0,0,0,0,0,0,0,0,-0.5018,-0.5024,-0.5082,-0.5085,-0.5088,-0.5132,-0.5116,-0.5163,-0.5156,-0.513,-0.5156,-0.5156,-0.519,-0.5194,-0.5206,-0.5241,-0.5243,-0.523,-0.5231,-0.5232,-0.5233,0,0,0,0,0,0,0,-0.5014,-0.5021,-0.5087,-0.5083,-0.5087,-0.5094,-0.5101,-0.5125,-0.5159,-0.5133,-0.5135,-0.5142,-0.5191,-0.5203,-0.5208,-0.5244,-0.523,-0.5232,-0.5234,-0.5235,-0.5295,-0.5295,0,0,0,0,0,0,-0.5007,-0.5018,-0.5085,-0.5089,-0.5052,-0.5096,-0.5104,-0.5118,-0.5159,-0.5165,-0.5142,-0.5143,-0.5199,-0.5205,-0.521,-0.5231,-0.5232,-0.5235,-0.5236,-0.5295,-0.5295,-0.5295,0,0,0,0,0,0,-0.5005,-0.5013,-0.5083,-0.5054,-0.5064,-0.5098,-0.5114,-0.5119,-0.5132,-0.5166,-0.5172,-0.5148,-0.5199,-0.5206,-0.5231,-0.5234,-0.5236,-0.5238,-0.5295,-0.5295,-0.5295,-0.5273,0,0,0,0,0,0,-0.5002,-0.5012,-0.5018,-0.5054,-0.5065,-0.5102,-0.5114,-0.5121,-0.5136,-0.5138,-0.5173,-0.5179,-0.52,-0.5227,-0.5233,-0.5237,-0.524,-0.5295,-0.5295,-0.5295,-0.5274,-0.5273,-0.5272,0,0,0,0,0,-0.4999,-0.501,-0.5018,-0.5026,-0.5074,-0.5102,-0.5109,-0.5132,-0.5136,-0.5142,-0.5165,-0.5178,-0.5232,-0.5229,-0.5236,-0.5241,-0.5294,-0.5295,-0.5295,-0.5274,-0.5273,-0.5272,0,0,0,0,0,0,-0.4973,-0.5015,-0.5025,-0.5048,-0.5071,-0.5107,-0.5117,-0.513,-0.5153,-0.5154,-0.5182,-0.519,-0.5212,-0.5229,-0.5224,-0.5259,-0.5265,-0.5266,-0.5247,-0.5245,-0.5244,-0.524,-0.5242,0,0,0,0,0,-0.497,-0.499,-0.5025,-0.5042,-0.5053,-0.5083,-0.5096,-0.5112,-0.5138,-0.5148,-0.5172,-0.5196,-0.5219,-0.5233,-0.5256,-0.5277,-0.5285,-0.5284,-0.5283,-0.5281,-0.5283,-0.5295,-0.5295,-0.5296,-0.5296,-0.5296,0,0,-0.4964,-0.4989,-0.5,-0.5037,-0.5057,-0.5077,-0.5091,-0.5111,-0.5126,-0.5151,-0.5175,-0.5194,-0.5223,-0.5245,-0.5257,-0.5261,-0.5284,-0.5282,-0.5281,-0.5283,-0.5295,-0.5295,-0.5295,-0.5296,-0.5296,-0.5296,0,0,-0.4963,-0.4984,-0.5,-0.502,-0.505,-0.507,-0.5074,-0.5108,-0.5121,-0.5146,-0.5165,-0.5183,-0.5221,-0.5242,-0.5257,-0.5263,-0.5276,-0.527,-0.5264,-0.5276,-0.5276,-0.5276,-0.5278,-0.5279,-0.5271,-0.5271,-0.5271,0,-0.4951,-0.4982,-0.5007,-0.5026,-0.5042,-0.5065,-0.5082,-0.51,-0.5136,-0.5147,-0.515,-0.5199,-0.522,-0.5248,-0.5249,-0.5261,-0.5266,-0.5266,-0.5274,-0.5274,-0.5275,-0.5277,-0.5278,-0.527,-0.527,-0.527,-0.527,0,-0.4967,-0.4987,-0.4997,-0.5031,-0.5048,-0.5066,-0.5093,-0.5108,-0.5122,-0.5141,-0.5166,-0.5193,-0.5221,-0.5229,-0.5243,-0.5258,-0.526,-0.5268,-0.5275,-0.5273,-0.5276,-0.5277,-0.5268,-0.5269,-0.5269,-0.5269,0,0,-0.4951,-0.4999,-0.5002,-0.5018,-0.5053,-0.507,-0.5088,-0.5116,-0.5128,-0.5152,-0.5169,-0.5201,-0.5209,-0.5226,-0.5243,-0.5253,-0.5257,-0.526,-0.5261,-0.5259,-0.5275,-0.5269,-0.527,-0.5266,-0.5266,-0.5266,-0.5273,0,-0.4955,-0.499,-0.5013,-0.5039,-0.5058,-0.5081,-0.5097,-0.5121,-0.5139,-0.5158,-0.5179,-0.5201,-0.521,-0.522,-0.5232,-0.5254,-0.526,-0.5254,-0.5282,-0.5282,-0.5274,-0.5271,-0.5264,-0.527,-0.5274,-0.5275,-0.5275,0,-0.4964,-0.4988,-0.5016,-0.5049,-0.5058,-0.5072,-0.51,-0.5118,-0.5145,-0.5158,-0.5177,-0.5194,-0.5215,-0.522,-0.5249,-0.5244,-0.5257,-0.5269,-0.527,-0.5274,-0.5278,-0.5275,-0.5272,-0.5273,-0.5277,-0.5277,-0.5276,0,-0.495,-0.4989,-0.5011,-0.5024,-0.5063,-0.5072,-0.5089,-0.5116,-0.5132,-0.5155,-0.5166,-0.5192,-0.5206,-0.5226,-0.5249,-0.525,-0.5276,-0.5283,-0.5287,-0.5287,-0.5292,-0.5291,-0.5291,-0.53,-0.53,-0.53,-0.53,0,-0.4952,-0.4969,-0.5005,-0.5018,-0.5037,-0.5063,-0.5081,-0.51,-0.5124,-0.5141,-0.5162,-0.5178,-0.5208,-0.5228,-0.5246,-0.5268,-0.5274,-0.5285,-0.529,-0.5283,-0.5282,-0.5292,-0.5293,-0.53,-0.53,-0.53,-0.53,0,-0.494,-0.4965,-0.499,-0.5025,-0.5034,-0.5047,-0.5077,-0.5091,-0.511,-0.5132,-0.5139,-0.5169,-0.5194,-0.5219,-0.5252,-0.5264,-0.5285,-0.5292,-0.5276,-0.5279,-0.5282,-0.5282,-0.5289,-0.5291,-0.5298,-0.5298,-0.5298,0,-0.494,-0.4953,-0.4989,-0.5002,-0.5019,-0.5039,-0.5055,-0.5081,-0.5097,-0.5128,-0.5139,-0.5164,-0.5186,-0.5224,-0.5249,-0.5275,-0.5282,-0.5283,-0.5286,-0.5279,-0.5282,-0.5281,-0.5283,-0.5282,-0.5282,-0.5282,-0.5281,0,-0.4937,-0.4948,-0.497,-0.4996,-0.5014,-0.5036,-0.5059,-0.5068,-0.5099,-0.5115,-0.514,-0.5157,-0.5191,-0.5216,-0.5245,-0.5262,-0.5277,-0.528,-0.5283,-0.5276,-0.5267,-0.5272,-0.5273,-0.528,-0.528,-0.528,-0.528,-0.528,-0.4931,-0.4943,-0.4971,-0.4994,-0.5014,-0.5035,-0.5049,-0.5071,-0.5092,-0.5122,-0.5136,-0.5161,-0.5188,-0.5227,-0.5244,-0.5265,-0.5269,-0.5272,-0.5273,-0.5274,-0.5272,-0.5263,-0.527,-0.527,-0.527,-0.527,-0.527,0,-0.4929,-0.4947,-0.4969,-0.5,-0.5018,-0.503,-0.5056,-0.5071,-0.5093,-0.5117,-0.5138,-0.5167,-0.5191,-0.5219,-0.5245,-0.5256,-0.5263,-0.5262,-0.5262,-0.5265,-0.5267,-0.5262,-0.5256,-0.5256,-0.5256,-0.5256,-0.5256,-0.5256,-0.493,-0.4952,-0.4967,-0.4999,-0.5018,-0.5043,-0.5056,-0.5075,-0.5095,-0.5126,-0.5147,-0.5164,-0.5189,-0.5218,-0.5241,-0.5249,-0.5257,-0.5254,-0.5263,-0.5264,-0.5265,-0.5266,-0.5262,-0.5256,-0.5256,-0.5261,-0.5261,-0.5261]}]]